Location: Ariel
(45.9570°N, 122.5700°W)
Time: 09:36:46
(UTC-07:00)

Tiros 1 - Pass Details

Date: 20 July 2019
Orbit: 630 x 664 km, 48.4° (Epoch: 21 August)

Event Time Altitude Azimuth Distance (km) Brightness Sun altitude
Rises 13:16:40 0° 219° (SW) 2,978 10.8 64.6°
Reaches altitude 10° 13:19:08 10° 211° (SSW) 2,071 10.2 64.6°
Maximum altitude 13:23:30 37° 145° (SE) 1,037 9.3 64.6°
Drops below altitude 10° 13:27:55 10° 79° (E) 2,084 9.8 64.5°
Sets 13:30:24 0° 71° (ENE) 2,998 10.5 64.5°
